GW3387 Weather Reports


time (UTC)temp
C
wind
direction
speed
KPH
gust
KPH
rain 1hr
cm
rain 24hr
cm
rain mn
cm
humidity
%
barometer
mb
20260508054526 13 360 0.0 1.6 0.00 0.00 0.00 100 1010.9
20260508053016 12 360 0.0 3.2 0.00 0.00 0.00 100 1010.9
20260508051523 12 360 1.6 4.8 0.00 0.00 0.00 100 1010.9
20260508050018 12 360 1.6 6.4 0.00 0.00 0.00 100 1010.8
20260508044511 12 360 1.6 6.4 0.00 0.00 0.00 100 1010.8
20260508043012 12 360 1.6 8.0 0.00 0.00 0.00 100 1010.7
20260508041509 13 360 3.2 4.8 0.00 0.00 0.00 100 1010.6
20260508040006 12 360 0.0 0.0 0.00 0.00 0.00 100 1010.3
20260508034506 12 360 0.0 0.0 0.00 0.00 0.00 100 1010.3
20260508033101 12 360 0.0 3.2 0.00 0.00 0.00 100 1010.2
20260508031606 13 360 3.2 6.4 0.00 0.00 0.00 100 1010.4
20260508030105 13 360 0.0 1.6 0.00 0.00 0.00 100 1010.3
20260508024554 13 360 1.6 6.4 0.00 0.00 0.00 100 1010.3
20260508023051 13 360 0.0 3.2 0.00 0.00 0.00 100 1010.2
20260508021551 13 360 0.0 0.0 0.00 0.00 0.00 100 1010.1
20260508020049 13 360 0.0 0.0 0.00 0.00 0.00 100 1010.2
20260508014545 13 360 0.0 0.0 0.00 0.00 0.00 100 1010.2
20260508013043 13 360 0.0 0.0 0.00 0.00 0.00 100 1010.3
20260508011546 13 360 1.6 4.8 0.00 0.00 0.00 100 1010.2
20260508010042 14 360 0.0 0.0 0.00 0.00 0.00 100 1010.2
20260508004540 14 360 0.0 0.0 0.00 0.00 0.00 100 1010.2
20260508003038 14 360 0.0 0.0 0.00 0.00 0.00 100 1010.3
20260508001538 15 360 0.0 0.0 0.00 0.00 0.00 100 1010.2
20260508000037 15 360 0.0 4.8 0.00 0.00 0.00 100 1010.2
20260507234542 15 360 1.6 6.4 0.00 0.00 0.00 100 1010.1
20260507233035 15 360 1.6 8.0 0.00 0.00 0.00 100 1010.1
20260507231536 15 360 0.0 6.4 0.00 0.00 0.00 100 1010.1
20260507230030 15 360 1.6 4.8 0.00 0.00 0.00 100 1009.8
20260507224529 15 360 0.0 0.0 0.00 0.00 0.00 100 1009.9
20260507223025 16 360 0.0 3.2 0.00 0.00 0.00 100 1009.9
20260507221524 16 360 1.6 4.8 0.00 0.00 0.00 100 1010.1
20260507220022 16 360 0.0 0.0 0.00 0.00 0.00 100 1010.3
20260507214526 16 360 3.2 4.8 0.00 0.00 0.00 100 1010.3
20260507213017 17 360 1.6 8.0 0.00 0.00 0.00 100 1010.0
20260507211516 17 360 6.4 14.5 0.00 0.00 0.00 100 1010.0
20260507210013 17 360 8.0 12.9 0.00 0.00 0.00 100 1010.0
20260507204512 17 360 3.2 9.7 0.00 0.00 0.00 100 1010.0
20260507203013 17 360 1.6 12.9 0.00 0.00 0.00 100 1009.8
20260507201516 17 360 4.8 12.9 0.00 0.00 0.00 100 1009.5
20260507200011 17 360 4.8 8.0 0.00 0.00 0.00 100 1009.6
20260507194511 17 360 4.8 8.0 0.00 0.00 0.00 100 1009.7
20260507193017 17 360 1.6 4.8 0.00 0.00 0.00 100 1009.8
20260507191511 17 360 1.6 4.8 0.00 0.00 0.00 100 1009.9
20260507190010 17 360 0.0 4.8 0.00 0.00 0.00 100 1010.0
20260507184508 17 360 0.0 4.8 0.00 0.00 0.00 100 1009.9
20260507183009 17 360 0.0 0.0 0.00 0.00 0.00 100 1009.9
20260507181506 18 360 0.0 4.8 0.00 0.00 0.00 100 1009.8
20260507180007 18 360 1.6 4.8 0.00 0.00 0.00 100 1009.8
20260507174514 18 360 0.0 4.8 0.00 0.00 0.00 100 1009.6
20260507173008 18 360 0.0 0.0 0.00 0.00 0.00 100 1009.8
20260507171505 18 360 0.0 4.8 0.00 0.00 0.00 100 1009.7
20260507170005 18 360 0.0 3.2 0.00 0.00 0.00 100 1009.6
20260507164505 18 360 0.0 0.0 0.00 0.00 0.00 100 1009.7
20260507163102 18 360 0.0 4.8 0.00 0.00 0.00 100 1009.6
20260507161502 18 360 0.0 1.6 0.00 0.00 0.00 100 1009.7
20260507160003 19 360 1.6 6.4 0.00 0.00 0.00 100 1009.7
20260507154501 20 360 1.6 8.0 0.00 0.00 0.00 100 1009.6
20260507153100 20 360 4.8 17.7 0.00 0.00 0.00 100 1009.5
20260507151601 21 360 9.7 22.5 0.00 0.00 0.00 100 1009.6
20260507150059 24 174 8.0 19.3 0.00 0.00 0.00 99 1008.9
20260507144558 25 142 9.7 22.5 0.00 0.00 0.00 98 1008.5
20260507143113 25 144 6.4 29.0 0.00 0.00 0.00 98 1008.4
20260507141621 26 157 8.0 25.7 0.00 0.00 0.00 98 1008.2
20260507140111 25 148 16.1 25.7 0.00 0.00 0.00 97 1008.1
20260507134600 25 111 16.1 25.7 0.00 0.00 0.00 98 1007.9
20260507133100 26 126 16.1 25.7 0.00 0.00 0.00 98 1008.0
20260507131617 26 123 14.5 27.4 0.00 0.00 0.00 99 1008.0
20260507130053 26 86 11.3 27.4 0.00 0.00 0.00 99 1008.2
20260507124559 26 153 16.1 30.6 0.00 0.00 0.00 99 1008.3
20260507123054 26 140 12.9 32.2 0.00 0.00 0.00 99 1008.5
20260507121547 26 167 9.7 22.5 0.00 0.00 0.00 100 1008.6
20260507120045 26 148 9.7 20.9 0.00 0.00 0.00 100 1008.8
20260507114543 26 163 9.7 24.1 0.00 0.00 0.00 99 1009.0
20260507113103 25 146 9.7 24.1 0.00 0.00 0.00 100 1009.2
20260507111537 25 143 9.7 20.9 0.00 0.00 0.00 100 1009.3
20260507110039 25 150 9.7 17.7 0.00 0.00 0.00 100 1009.3
20260507104533 25 126 11.3 17.7 0.00 0.00 0.00 100 1009.4
20260507103032 25 196 11.3 22.5 0.00 0.00 0.00 100 1009.5
20260507101529 24 88 11.3 20.9 0.00 0.00 0.00 100 1009.6
20260507100041 24 125 9.7 20.9 0.00 0.00 0.00 100 1009.7
20260507094522 23 140 8.0 16.1 0.00 0.00 0.00 100 1009.9
20260507093018 23 132 8.0 22.5 0.00 0.00 0.00 100 1010.1
20260507091516 22 177 9.7 19.3 0.00 0.00 0.00 100 1010.1
20260507090012 22 124 8.0 14.5 0.00 0.00 0.00 100 1010.2
20260507084525 22 137 6.4 17.7 0.00 0.00 0.00 100 1010.2
20260507083017 21 136 8.0 14.5 0.00 0.00 0.00 100 1010.4
20260507081504 21 136 6.4 14.5 0.00 0.00 0.00 100 1010.4
20260507080004 21 139 8.0 17.7 0.00 0.00 0.00 100 1010.4
20260507074503 21 172 6.4 14.5 0.00 0.00 0.00 100 1010.4
20260507073109 20 125 9.7 20.9 0.00 0.00 0.00 100 1010.3
20260507071554 20 112 9.7 17.7 0.00 0.00 0.00 100 1010.3
20260507070104 19 140 8.0 19.3 0.00 0.00 0.00 100 1010.4
20260507064550 18 132 8.0 14.5 0.00 0.00 0.00 100 1010.3
20260507063052 17 115 8.0 17.7 0.00 0.00 0.00 100 1010.4
20260507061541 17 144 4.8 16.1 0.00 0.00 0.00 100 1010.4
20260507060044 16 171 4.8 14.5 0.00 0.00 0.00 100 1010.4